Location: Alvis C Story Elementary School
(33.0968°N, 96.6364°W)
Time: 19:19:33
(UTC+00:00)

Cosmos 1602 - Pass Details

Date: 06 July 2022
Orbit: 508 x 526 km, 82.5° (Epoch: 17 August)

Event Time Altitude Azimuth Distance (km) Brightness Sun altitude
Exits shadow 09:31:54 21° 297° (WNW) 1,186 5.3 -19.6°
Drops below altitude 10° 09:34:15 10° 334° (NNW) 1,731 6.6 -19.2°
Sets 09:36:45 0° 350° (N) 2,623 7.8 -18.9°
